User: anonymous
Location: Albany
(35.0000°S, 118.0000°E)
Time: 11:55:47
(UTC-04:00)
Language:

TRMM - Orbit

View from above orbital plane
View from above orbital plane
View from above satellite
View from above satellite

Ground track
Ground track

The orbit data is extracted from the following two-line orbital elements,

1 25063U 97074A   14213.16163880  .00018014  00000-0  24715-3 0  7070
2 25063 034.9545 202.7492 0001379 222.8860 230.7787 15.56390169951703
Epoch (UTC): 01 August 2014 03:52:45
Eccentricity: 0.0001379
inclination: 34.9545°
perigee height: 397 km
apogee height: 399 km
right ascension of ascending node: 202.7492°
argument of perigee: 222.8860°
revolutions per day: 15.56390169
mean anomaly at epoch: 230.7787°
orbit number at epoch: 95170

The dashed part of the orbit path shows where the satellite is in the earth's shadow,  

DLR